| time (UTC) | temp F | wind direction | speed MPH | gust MPH | rain 1hr in | rain 24hr in | rain mn in | humidity % | barometer mb |
| 20260904030055 | 58 | 0.0 | 0.0 | 0.00 | 0.14 | 0.00 | 94 | 1006.7 | |
| 20260904024552 | 58 | 0.0 | 0.0 | 0.00 | 0.14 | 0.00 | 94 | 1006.7 | |
| 20260904023049 | 58 | 0.0 | 0.0 | 0.00 | 0.14 | 0.00 | 94 | 1006.7 | |
| 20260904021555 | 58 | 0.0 | 0.0 | 0.00 | 0.14 | 0.00 | 94 | 1007.1 | |
| 20260904020052 | 58 | 0.0 | 0.0 | 0.00 | 0.14 | 0.00 | 93 | 1007.2 | |
| 20260904014608 | 59 | 0.0 | 0.0 | 0.00 | 0.14 | 0.00 | 93 | 1007.0 | |
| 20260904013053 | 59 | 0.0 | 0.0 | 0.00 | 0.14 | 0.00 | 93 | 1007.0 | |
| 20260904011553 | 59 | 0.0 | 0.0 | 0.00 | 0.14 | 0.00 | 94 | 1007.1 | |
| 20260904010115 | 59 | 0.0 | 0.0 | 0.00 | 0.14 | 0.00 | 93 | 1007.1 | |
| 20260904004556 | 59 | 0.0 | 0.0 | 0.00 | 0.14 | 0.00 | 93 | 1007.3 | |
| 20260904003053 | 59 | 0.0 | 0.0 | 0.00 | 0.14 | 0.00 | 93 | 1007.4 | |
| 20260904001601 | 59 | 0.0 | 0.0 | 0.00 | 0.14 | 0.00 | 93 | 1007.2 | |
| 20260904000055 | 59 | 0.0 | 0.0 | 0.00 | 0.14 | 0.00 | 93 | 1007.4 | |
| 20260903234555 | 59 | 0.0 | 0.0 | 0.00 | 0.14 | 0.00 | 93 | 1007.7 | |
| 20260903233104 | 60 | 0.0 | 0.0 | 0.00 | 0.14 | 0.00 | 92 | 1007.6 | |
| 20260903231605 | 60 | 0.0 | 0.0 | 0.00 | 0.14 | 0.00 | 92 | 1007.6 | |
| 20260903230057 | 60 | 0.0 | 0.0 | 0.00 | 0.14 | 0.00 | 93 | 1007.8 | |
| 20260903224553 | 59 | 0.0 | 0.0 | 0.00 | 0.14 | 0.00 | 92 | 1007.7 | |
| 20260903223100 | 60 | 0.0 | 0.0 | 0.00 | 0.14 | 0.00 | 92 | 1007.9 | |
| 20260903221555 | 60 | 0.0 | 0.0 | 0.00 | 0.14 | 0.00 | 92 | 1007.7 | |
| 20260903220054 | 60 | 0.0 | 0.0 | 0.00 | 0.14 | 0.00 | 93 | 1007.8 | |
| 20260903214552 | 60 | 0.0 | 0.0 | 0.00 | 0.14 | 0.14 | 92 | 1007.6 | |
| 20260903213104 | 61 | 0.0 | 0.0 | 0.00 | 0.14 | 0.14 | 92 | 1007.6 | |
| 20260903211557 | 61 | 0.0 | 0.0 | 0.00 | 0.14 | 0.14 | 92 | 1007.5 | |
| 20260903210108 | 61 | 0.0 | 0.0 | 0.00 | 0.14 | 0.14 | 92 | 1007.5 | |
| 20260903204616 | 62 | 0.0 | 0.0 | 0.00 | 0.14 | 0.14 | 92 | 1007.6 | |
| 20260903203050 | 62 | 0.0 | 0.0 | 0.00 | 0.14 | 0.14 | 92 | 1007.6 | |
| 20260903201557 | 62 | 0.0 | 0.0 | 0.00 | 0.14 | 0.14 | 93 | 1007.7 | |
| 20260903200058 | 62 | 0.0 | 0.0 | 0.00 | 0.14 | 0.14 | 92 | 1007.5 | |
| 20260903194552 | 62 | 0.0 | 0.0 | 0.00 | 0.14 | 0.14 | 92 | 1007.5 | |
| 20260903193101 | 62 | 0.0 | 0.0 | 0.00 | 0.14 | 0.14 | 92 | 1007.2 | |
| 20260903191554 | 63 | 0.0 | 0.0 | 0.00 | 0.14 | 0.14 | 92 | 1007.3 | |
| 20260903190054 | 63 | 0.0 | 0.0 | 0.00 | 0.14 | 0.14 | 94 | 1007.1 | |
| 20260903184553 | 63 | 0.0 | 0.0 | 0.00 | 0.14 | 0.14 | 95 | 1007.1 | |
| 20260903183054 | 63 | 0.0 | 0.0 | 0.00 | 0.14 | 0.14 | 96 | 1007.1 | |
| 20260903181604 | 63 | 0.0 | 0.0 | 0.00 | 0.14 | 0.14 | 97 | 1006.8 | |
| 20260903180101 | 63 | 0.0 | 0.0 | 0.00 | 0.14 | 0.14 | 97 | 1006.8 | |
| 20260903174554 | 64 | 0.0 | 0.0 | 0.00 | 0.14 | 0.14 | 97 | 1006.8 | |
| 20260903173053 | 64 | 0.0 | 0.0 | 0.00 | 0.14 | 0.14 | 98 | 1007.0 | |
| 20260903171556 | 63 | 0.0 | 0.0 | 0.00 | 0.14 | 0.14 | 98 | 1006.9 | |
| 20260903170057 | 63 | 0.0 | 0.0 | 0.00 | 0.14 | 0.14 | 99 | 1007.0 | |
| 20260903164553 | 63 | 0.0 | 0.0 | 0.00 | 0.14 | 0.14 | 99 | 1006.9 | |
| 20260903163053 | 63 | 0.0 | 0.0 | 0.00 | 0.14 | 0.14 | 99 | 1007.2 | |
| 20260903161548 | 62 | 0.0 | 0.0 | 0.00 | 0.14 | 0.14 | 99 | 1007.0 | |
| 20260903160106 | 62 | 0.0 | 0.0 | 0.00 | 0.14 | 0.14 | 99 | 1007.1 | |
| 20260903154552 | 62 | 0.0 | 0.0 | 0.00 | 0.14 | 0.14 | 99 | 1007.1 | |
| 20260903153056 | 62 | 0.0 | 0.0 | 0.00 | 0.14 | 0.14 | 99 | 1007.3 | |
| 20260903151555 | 61 | 0.0 | 0.0 | 0.00 | 0.14 | 0.14 | 99 | 1007.4 | |
| 20260903150105 | 61 | 0.0 | 0.0 | 0.00 | 0.14 | 0.14 | 98 | 1007.5 | |
| 20260903144604 | 61 | 0.0 | 0.0 | 0.00 | 0.14 | 0.13 | 98 | 1007.7 | |
| 20260903143059 | 61 | 0.0 | 0.0 | 0.00 | 0.14 | 0.13 | 98 | 1008.1 | |
| 20260903141553 | 61 | 0.0 | 0.0 | 0.00 | 0.14 | 0.13 | 98 | 1008.2 | |
| 20260903140110 | 61 | 0.0 | 0.0 | 0.00 | 0.14 | 0.13 | 98 | 1008.2 | |
| 20260903134555 | 61 | 0.0 | 0.0 | 0.00 | 0.14 | 0.13 | 98 | 1008.4 | |
| 20260903133107 | 61 | 0.0 | 0.0 | 0.00 | 0.14 | 0.13 | 98 | 1008.6 | |
| 20260903131557 | 60 | 0.0 | 0.0 | 0.00 | 0.14 | 0.13 | 98 | 1008.6 | |
| 20260903130054 | 60 | 0.0 | 0.0 | 0.00 | 0.14 | 0.13 | 98 | 1008.9 | |
| 20260903124611 | 60 | 0.0 | 0.0 | 0.00 | 0.14 | 0.13 | 98 | 1009.0 | |
| 20260903123056 | 60 | 0.0 | 0.0 | 0.00 | 0.14 | 0.13 | 98 | 1009.0 | |
| 20260903121555 | 60 | 0.0 | 0.0 | 0.00 | 0.14 | 0.13 | 98 | 1009.4 | |
| 20260903114551 | 60 | 0.0 | 0.0 | 0.01 | 0.13 | 0.12 | 98 | 1009.7 | |
| 20260903113056 | 60 | 0.0 | 0.0 | 0.03 | 0.13 | 0.12 | 98 | 1009.9 | |
| 20260903111552 | 60 | 0.0 | 0.0 | 0.05 | 0.13 | 0.12 | 97 | 1009.9 | |
| 20260903110049 | 59 | 0.0 | 0.0 | 0.05 | 0.13 | 0.12 | 97 | 1010.4 | |
| 20260903104555 | 59 | 0.0 | 0.0 | 0.03 | 0.11 | 0.11 | 97 | 1010.6 | |
| 20260903103055 | 59 | 0.0 | 0.0 | 0.02 | 0.10 | 0.09 | 96 | 1010.8 | |
| 20260903101555 | 59 | 0.0 | 0.0 | 0.00 | 0.07 | 0.07 | 95 | 1011.2 | |
| 20260903100052 | 60 | 0.0 | 0.0 | 0.00 | 0.07 | 0.07 | 95 | 1011.4 | |
| 20260903094601 | 60 | 0.0 | 0.0 | 0.00 | 0.07 | 0.07 | 95 | 1011.5 | |
| 20260903093119 | 60 | 0.0 | 0.0 | 0.00 | 0.07 | 0.07 | 96 | 1011.5 | |
| 20260903091553 | 61 | 0.0 | 0.0 | 0.00 | 0.07 | 0.07 | 96 | 1011.7 | |
| 20260903084603 | 61 | 0.0 | 0.0 | 0.00 | 0.07 | 0.07 | 97 | 1011.9 | |
| 20260903083059 | 61 | 0.0 | 0.0 | 0.00 | 0.07 | 0.06 | 97 | 1012.1 | |
| 20260903081603 | 61 | 0.0 | 0.0 | 0.00 | 0.07 | 0.06 | 97 | 1012.3 | |
| 20260903080112 | 61 | 0.0 | 0.0 | 0.00 | 0.07 | 0.06 | 97 | 1012.4 | |
| 20260903074613 | 60 | 0.0 | 0.0 | 0.00 | 0.07 | 0.06 | 97 | 1012.3 | |
| 20260903073106 | 60 | 0.0 | 0.0 | 0.00 | 0.07 | 0.06 | 98 | 1012.5 | |
| 20260903071607 | 60 | 0.0 | 0.0 | 0.00 | 0.07 | 0.06 | 98 | 1012.6 | |
| 20260903070051 | 60 | 0.0 | 0.0 | 0.00 | 0.07 | 0.06 | 98 | 1012.7 | |
| 20260903064555 | 60 | 0.0 | 0.0 | 0.00 | 0.07 | 0.06 | 99 | 1012.7 | |
| 20260903063054 | 59 | 0.0 | 0.0 | 0.00 | 0.07 | 0.06 | 98 | 1013.0 | |
| 20260903061558 | 58 | 0.0 | 0.0 | 0.04 | 0.07 | 0.06 | 98 | 1013.1 | |
| 20260903060100 | 57 | 0.0 | 0.0 | 0.05 | 0.06 | 0.05 | 98 | 1013.3 | |
| 20260903054600 | 57 | 0.0 | 0.0 | 0.05 | 0.06 | 0.05 | 98 | 1013.3 | |
| 20260903053054 | 57 | 0.0 | 0.0 | 0.05 | 0.06 | 0.05 | 98 | 1013.4 | |
| 20260903051602 | 57 | 0.0 | 0.0 | 0.01 | 0.02 | 0.01 | 98 | 1013.5 | |
| 20260903044558 | 57 | 0.0 | 0.0 | 0.00 | 0.00 | 0.00 | 98 | 1013.7 | |
| 20260903043051 | 57 | 0.0 | 0.0 | 0.00 | 0.00 | 0.00 | 98 | 1013.6 | |
| 20260903041558 | 57 | 0.0 | 0.0 | 0.00 | 0.00 | 0.00 | 98 | 1013.8 | |
| 20260903040056 | 57 | 0.0 | 0.0 | 0.00 | 0.00 | 0.00 | 98 | 1013.9 | |
| 20260903034552 | 57 | 0.0 | 0.0 | 0.00 | 0.00 | 0.00 | 98 | 1013.8 | |
| 20260903033123 | 57 | 0.0 | 0.0 | 0.00 | 0.00 | 0.00 | 98 | 1013.9 | |
| 20260903031632 | 57 | 0.0 | 0.0 | 0.00 | 0.00 | 0.00 | 97 | 1014.0 |